Location: Chars
(49.1603°N, 1.9367°E)
Time: 13:20:18
(UTC+00:00)

Daily predictions for brighter satellites

Satellite Brightness Start Highest point End
(mag) Time Altitude Azimuth Time Altitude Azimuth Time Altitude Azimuth
Ariane Rocket 3.1 20:33:54 10° SSE 20:39:00 82° WSW 20:44:08 10° NNW
PSLV R/B 4.2 20:37:15 10° NNE 20:41:25 77° WNW 20:45:35 10° SSW
CZ-4B R/B 1.0 20:42:41 10° NNE 20:45:35 85° W 20:48:28 10° SSW
USA 234 4.4 20:41:52 10° ENE 20:48:02 45° N 20:54:13 10° WNW
ATLAS 2AS CENTAUR R/B 4.2 20:42:29 10° NW 20:48:20 29° WSW 20:53:53 10° S
ARIANE 5 R/B 3.9 20:44:47 10° ESE 20:48:32 27° ENE 20:52:16 10° N
Terra 2.6 20:44:31 10° SE 20:48:54 38° ENE 20:53:18 10° N
SPOT 3 Rocket 3.6 20:45:24 10° SSE 20:50:37 84° ENE 20:55:52 10° NNW
SPOT 5 2.9 20:47:21 10° SSE 20:51:34 53° ENE 20:55:49 10° N
RESURS DK-1 3.4 20:48:06 10° NW 20:52:02 42° WSW 20:55:56 10° S
USA 276 2.2 20:49:38 10° W 20:52:40 75° N 20:55:41 10° E
FALCON 9 DEB 3.4 20:50:48 10° WNW 20:54:02 60° NNE 20:57:15 10° E
Cosmos 1455 3.9 20:51:08 10° NNW 20:54:33 32° W 20:57:59 10° SSW
Cosmos 1726 Rocket 4.1 20:53:04 10° N 20:57:13 43° ENE 21:01:15 11° SSE
IRAS Rocket 4.2 20:56:28 10° NNE 21:02:06 82° ESE 21:07:39 10° SSW
Cosmos 1331 Rocket 4.0 20:57:41 10° SSW 21:02:59 78° ESE 21:08:18 10° NNE
Cosmos 2074 Rocket 4.2 20:57:21 10° NNW 21:03:37 76° W 21:09:50 10° S
Cosmos 2082 Rocket 2.7 20:58:51 10° S 21:04:07 40° ESE 21:09:25 10° NE
Cosmos 2360 4.5 21:00:26 10° NNW 21:06:09 68° WSW 21:11:49 10° SSE
Helios 1A Rocket 3.0 21:04:55 10° SSE 21:08:55 72° ENE 21:13:02 10° N
Spot 2 Rocket 3.5 21:04:14 10° SSE 21:09:20 82° ENE 21:14:29 10° NNW
Cosmos 1328 4.0 21:05:32 10° S 21:09:26 52° E 21:13:18 10° NNE
Cosmos 2084 Rocket 3.6 21:06:30 10° NW 21:10:20 57° SW 21:13:53 13° SSE
Cosmos 2360 Rocket 4.3 21:08:08 10° N 21:11:57 18° NE 21:15:44 10° ENE
Nadezhda 1 Rocket 3.9 21:08:44 10° S 21:14:47 76° E 21:20:52 10° NNE
X-37B 2.4 21:23:00 10° WSW 21:24:37 14° SSW 21:25:27 13° S
ERS-1 Rocket 3.0 21:22:07 11° SSE 21:26:56 83° WSW 21:32:00 10° NNW
Cosmos 1892 3.4 21:26:27 16° SSE 21:28:57 35° E 21:32:26 10° NNE
Meteor 1-21 Rocket 4.4 21:25:59 10° SSW 21:31:36 76° WNW 21:37:22 10° N
Cosmos 2228 4.1 21:30:48 10° NNW 21:34:45 39° W 21:38:43 10° SSW
Cosmos 1302 Rocket 3.9 21:29:54 10° SSW 21:35:04 74° ESE 21:40:16 10° NNE
Cosmos 2154 Rocket 4.5 21:31:52 10° NNW 21:37:58 60° W 21:44:02 10° S
Cosmos 192 4.3 21:33:25 10° SSW 21:38:19 89° ESE 21:43:16 10° NNE
Cosmos 1892 Rocket 3.5 21:38:01 11° S 21:42:09 79° E 21:46:32 10° NNE
Cosmos 968 Rocket 3.7 21:37:07 10° NNW 21:42:18 69° WSW 21:46:30 16° S
ASTRO F (AKARI) 4.5 21:40:19 20° SSE 21:42:39 73° ENE 21:46:08 10° N
Cosmos 1697 Rocket 3.9 21:39:41 10° NW 21:44:43 34° WSW 21:49:42 10° S
Cosmos 1980 Rocket 2.5 21:40:01 10° NNW 21:45:39 64° WSW 21:50:07 16° S
SL-16 R/B 2.9 21:42:57 10° NNW 21:48:25 46° NE 21:52:57 15° ESE
Cosmos 2058 Rocket 3.1 21:45:40 10° N 21:50:07 87° E 21:53:20 19° S
Cosmos 1408 2.3 21:48:45 18° S 21:51:11 78° E 21:54:39 10° NNE
Cosmos 1626 Rocket 4.3 21:50:06 20° SE 21:52:28 35° E 21:56:28 10° NNE
SL-8 Rocket 4.0 21:47:01 10° N 21:53:16 76° E 21:58:01 18° SSE
ATLAS 5 CENTAUR R/B 1.5 21:50:51 13° SSW 21:53:59 45° SE 21:57:57 10° NE
Cosmos 2369 4.3 21:48:31 10° NW 21:54:02 50° WSW 21:58:31 15° S
CZ-2C R/B 3.8 21:49:30 10° NNE 21:54:05 76° WNW 21:58:31 10° SSW
USA 267 4.0 21:49:11 10° ENE 21:54:44 29° SE 21:59:31 13° S
Resurs 01 Rocket 4.4 21:53:23 10° WSW 21:54:49 11° W 21:56:16 10° WNW
SJ 16-02 2.6 21:56:39 10° N 22:00:38 31° ENE 22:03:35 15° ESE
SL-4 R/B 3.8 22:04:44 13° E 22:04:44 13° E 22:05:18 10° E
In-Cosmos 22 Rocket 4.2 21:59:05 17° S 22:03:21 66° E 22:08:43 10° NNE
COSMOS 2406 3.8 21:58:44 10° SW 22:04:26 59° WNW 22:10:08 10° NNE
Cosmos 1825 2.2 22:07:59 26° SSE 22:09:54 59° E 22:13:36 10° NNE
Cosmos 1833 Rocket 4.3 22:04:51 10° WSW 22:09:59 36° NW 22:15:10 10° NNE
Cosmos 1867 4.4 22:06:46 10° NW 22:11:53 41° WSW 22:15:18 19° S
Cosmos 2366 rocket 4.0 22:07:17 10° N 22:13:41 88° E 22:18:15 20° S
Cosmos 1869 3.2 22:12:29 10° N 22:16:25 84° E 22:18:25 28° SSE
Cosmos 2218 Rocket 4.1 22:13:42 10° N 22:20:09 84° W 22:24:43 20° S
Cosmos 2322 Rocket 2.6 22:16:56 10° NNW 22:22:34 58° ENE 22:26:28 20° SE
GP-B 3.3 22:19:05 10° N 22:23:32 71° W 22:26:26 21° SSW
Meteor 1-27 4.2 22:18:14 10° NNW 22:23:48 78° W 22:27:27 22° S
ARIANE 5 R/B 3.7 22:21:46 16° SSW 22:24:51 38° W 22:28:59 10° NNW
Terra 3.3 22:22:57 12° SSW 22:26:43 30° W 22:30:55 10° NNW
SAR-Lupe-4 3.5 22:24:11 10° NNE 22:27:47 88° E 22:29:35 28° SSW
USA 276 2.2 22:25:25 10° W 22:28:22 47° SSW 22:28:42 44° S
FALCON 9 DEB 3.8 22:27:11 10° WNW 22:30:10 33° SW 22:30:31 32° SSW
USA 234 3.6 22:24:04 10° ESE 22:30:32 65° NNE 22:37:01 10° NW
Cosmos 2278 4.4 22:30:30 10° NW 22:35:55 44° WSW 22:39:18 21° S
BREEZE-M DEB (TANK) 3.4 22:33:03 10° W 22:36:01 87° S 22:46:36 10° ESE
Cosmos 1633 2.4 22:39:00 39° SSE 22:40:05 67° E 22:43:33 10° NNE
Cosmos 1992 Rocket 4.3 22:37:42 11° SSW 22:42:39 69° WNW 22:47:54 10° NNE
Cosmos 2333 Rocket 3.3 22:37:59 10° NNW 22:43:21 38° NE 22:48:05 13° ESE
Okean 1-7 Rocket 4.0 22:40:57 20° SSW 22:43:57 62° WNW 22:48:27 10° N
Cosmos 1758 Rocket 3.7 22:42:24 31° SSE 22:44:18 61° E 22:48:40 10° NNE
ASTEX 1 4.2 22:42:32 10° N 22:47:21 49° WNW 22:51:09 16° SSW
Cosmos 2082 Rocket 3.5 22:42:50 10° WSW 22:48:13 41° NW 22:53:36 10° NNE
Cosmos 1606 2.8 22:49:09 10° N 22:53:00 65° ENE 22:54:21 37° SSE
Cosmos-2242 2.9 22:49:08 10° N 22:53:24 90° NE 22:55:10 35° S
Cosmos 1812 Rocket 3.6 22:49:41 10° NNW 22:54:09 73° W 22:56:09 32° S
Cosmos 2360 Rocket 2.4 22:51:22 10° NNW 22:57:04 68° ENE 23:00:32 24° SE
ADEOS Rocket 3.7 22:53:14 23° SSE 22:58:15 73° ENE 23:06:02 10° NNW
Cosmos 1340 Rocket 3.8 22:58:42 28° ESE 22:59:39 33° E 23:03:14 10° NNE
Gbstr 26 Del rocket 3.4 22:59:00 35° S 23:00:06 41° SE 23:04:44 10° ENE
Cosmos 1821 Rocket 4.0 23:01:38 10° NNW 23:07:52 75° W 23:11:22 27° S
Cosmos 1602 Rocket 3.9 23:05:35 26° SSW 23:07:52 59° WNW 23:12:10 10° N
BREEZE-M DEB (TANK) 4.3 23:12:25 20° ESE 23:12:25 20° ESE 23:14:35 10° E
SL-27 R/B 4.3 23:13:18 17° E 23:13:18 17° E 23:15:17 10° ENE
Cosmos 44 3.6 23:14:09 35° SSE 23:15:14 41° ESE 23:19:27 10° NE
Cosmos 972 Rocket 4.3 23:10:21 10° NNW 23:15:33 69° ENE 23:18:41 27° SE
Cosmos 1354 Rocket 4.5 23:12:05 10° NNW 23:17:12 49° WSW 23:19:33 29° SSW
Cosmos 2237 4.4 23:14:10 10° NW 23:19:48 59° WSW 23:22:29 30° S
ERS-2 2.9 23:19:07 10° NNE 23:22:27 34° E 23:22:56 33° ESE
Cosmos 2237 Rocket 4.5 23:18:40 10° N 23:22:49 20° NE 23:26:56 10° E
ALOS 2 2.6 23:21:37 37° S 23:23:17 76° WSW 23:27:42 10° NNW
Spot 4 4.3 23:21:49 30° SSW 23:23:54 50° W 23:28:35 10° NNW
CENTAUR R/B 3.8 23:22:31 18° SE 23:24:10 20° ESE 23:28:45 10° ENE
NOSS 8 (A) 4.2 23:29:31 61° SSE 23:29:41 63° SE 23:32:37 10° NE
COSMOS 2428 3.7 23:24:23 10° NNW 23:29:50 43° NE 23:34:37 13° ESE
Cosmos 1777 Rocket 4.3 23:25:42 10° NNW 23:30:53 57° WSW 23:33:07 32° S
H-2A R/B 3.4 23:26:56 10° NNE 23:31:10 83° WNW 23:32:48 37° SSW
Cosmos 2058 2.9 23:29:58 38° SSW 23:31:30 81° W 23:35:42 10° N
Nadezhda 3 Rocket 4.1 23:28:02 25° SSW 23:31:46 72° W 23:37:58 10° N
SL-16 R/B 3.1 23:27:18 10° NW 23:32:24 35° WSW 23:34:48 25° SSW
Cosmos 2219 Rocket 2.6 23:27:13 10° NNW 23:32:50 59° ENE 23:36:40 20° SE
Cosmos 1953 Rocket 3.5 23:33:03 39° S 23:34:39 76° E 23:39:03 10° NNE
USA 267 3.2 23:31:46 10° ENE 23:38:22 84° SSE 23:44:55 10° SW
ATLAS 5 CENTAUR R/B 3.4 23:35:14 10° W 23:38:41 29° NNW 23:42:36 10° NNE
SJ 16-02 2.4 23:35:12 10° NW 23:39:11 33° WSW 23:40:31 27° SW
Meteor 2-2 Rocket 4.5 23:35:07 10° NNW 23:41:07 70° W 23:44:11 30° S
SL-4 R/B 1.5 23:40:05 30° WSW 23:41:41 81° SSE 23:45:23 10° ENE
Cosmos 2322 4.0 23:36:21 10° NNW 23:42:01 63° ENE 23:45:45 21° SE
Cosmos 1825 Rocket 3.9 23:41:10 32° SW 23:42:59 59° WNW 23:47:19 10° N
Cosmos 1898 Rocket 4.4 23:38:25 10° NNW 23:43:22 42° ENE 23:47:02 17° SE
COSMOS 2455 4.4 23:44:52 10° NNW 23:50:21 34° NE 23:55:47 10° ESE
Cosmos 2221 2.5 23:46:19 10° N 23:50:42 90° ENE 23:52:14 40° S
PSLV R/B 3.9 23:49:08 10° NNE 23:53:51 62° E 23:55:36 36° SSE
